This demonstration page uses our WeatherBlox Daily Observations layout. Learn more.

38.89511, -77.03637

Hourly Observations for January 9, 2016

Temp ( °F °C ) Dew Point ( °F °C ) Humidity (%) Winds ( mph kmh ) Pressure ( in mb ) Visibility ( mi km ) Precip ( " mm )
12:43 am 00:43 Cloudy 43 6.1 40 4.4 89 89 N 3 6 30.12 1020 10 16.0934 0 0
12:52 am 00:52 Cloudy 43 6.1 40 4.4 89 89 N 5 7 30.12 1020 10 16.0934 0 0
1:52 am 01:52 Cloudy 43 6.1 40 4.4 89 89 N 5 7 30.13 1020 10 16.0934 0 0
2:40 am 02:40 Cloudy 43 6 39 4 87 87 NNE 5 7 30.12 1020 10 16.0934 0 0
2:52 am 02:52 Cloudy 43 6.1 39 3.9 86 86 NNE 5 7 30.12 1020 10 16.0934 0 0
3:52 am 03:52 Cloudy 43 6.1 38 3.3 82 82 NE 5 7 30.11 1020 10 16.0934 0 0
4:52 am 04:52 Cloudy with Light Drizzle 42 5.6 39 3.9 89 89 NNE 6 9 30.11 1020 4 6.43736 0 0.0254
5:14 am 05:14 Cloudy with Light Drizzle 43 6 39 4 87 87 NNE 3 6 30.12 1020 3 4.82802 0 0
5:21 am 05:21 Cloudy with Light Drizzle 42 5.6 40 4.4 92 92 N 5 7 30.12 1020 3 4.82802 0.01 0.254
5:52 am 05:52 Cloudy with Light Drizzle 41 5 40 4.4 96 96 N 3 6 30.12 1020 3 4.82802 0.01 0.254
6:24 am 06:24 Cloudy with Light Drizzle 43 6 39 4 87 87 N 5 7 30.12 1020 2.5 4.02335 0 0
6:52 am 06:52 Cloudy with Light Drizzle 42 5.6 40 4.4 92 92 N 3 6 30.13 1020 2 3.21868 0 0.0254
7:00 am 07:00 Cloudy with Light Drizzle 43 6 41 5 93 93 N 3 6 30.15 1021 2 3.21868 0 0
7:05 am 07:05 Cloudy with Light Drizzle 42 5.6 41 5 96 96 Calm 30.15 1021 2.5 4.02335 0 0.0254
7:15 am 07:15 Cloudy with Light Drizzle 42 5.6 41 5 96 96 NE 3 6 30.12 1020 2 3.21868 0 0.0254
7:17 am 07:17 Cloudy with Light Drizzle 42 5.6 41 5 96 96 NE 5 7 30.12 1020 2 3.21868 0 0.0254
7:19 am 07:19 Cloudy with Light Drizzle 41 5 40 4.4 96 96 NE 5 7 30.12 1020 2 3.21868 0 0.0254
7:30 am 07:30 Cloudy with Light Drizzle 41 5 39 4 93 93 NE 3 6 30.15 1021 2 3.21868 0 0
7:37 am 07:37 Cloudy with Light Drizzle 41 5 40 4.4 96 96 NNE 3 6 30.15 1021 2 3.21868 0 0.0254
7:42 am 07:42 Cloudy with Light Drizzle 41 5 39 4 93 93 NNE 3 6 30.15 1021 2.5 4.02335 0 0
7:49 am 07:49 Cloudy with Light Drizzle 41 5 39 4 93 93 NNE 3 6 30.15 1021 1.75 2.816345 0 0.0254
7:52 am 07:52 Cloudy with Light Drizzle 41 5 40 4.4 96 96 NNE 3 6 30.14 1021 1.5 2.41401 0 0.0254
8:01 am 08:01 Cloudy with Light Drizzle 41 5 40 4.4 96 96 NNE 3 6 30.15 1021 0.75 1.207005 0 0.0254
8:20 am 08:20 Cloudy with Light Drizzle 43 6 41 5 93 93 Calm 30.15 1021 0.75 1.207005 0 0
8:22 am 08:22 Cloudy with Light Drizzle 43 6 41 5 93 93 NE 3 6 30.15 1021 1 1.60934 0 0
8:33 am 08:33 Cloudy with Light Drizzle 42 5.6 41 5 96 96 NE 3 6 30.15 1021 1 1.60934 0.01 0.254
8:52 am 08:52 Cloudy with Light Drizzle 43 6.1 42 5.6 97 97 N 3 6 30.15 1021 1 1.60934 0.01 0.254
9:09 am 09:09 Cloudy with Light Drizzle 43 6.1 42 5.6 97 97 Calm 30.15 1021 1.75 2.816345 0 0.0254
9:20 am 09:20 Cloudy with Light Drizzle 43 6 43 6 100 100 Calm 30.15 1021 2 3.21868 0 0
9:44 am 09:44 Cloudy with Light Drizzle 43 6 43 6 100 100 NNE 5 7 30.15 1021 3 4.82802 0 0
9:52 am 09:52 Cloudy with Light Drizzle 43 6.1 42 5.6 97 97 NNE 5 7 30.16 1021 2.5 4.02335 0 0.0254
10:22 am 10:22 Cloudy with Light Drizzle 45 7 43 6 93 93 NNE 5 7 30.15 1021 3 4.82802 0 0
10:52 am 10:52 Cloudy with Light Drizzle 46 7.8 44 6.7 93 93 N 3 6 30.14 1021 4 6.43736 0 0.0254
11:52 am 11:52 Cloudy with Light Drizzle 48 8.9 44 6.7 86 86 Calm 30.13 1020 5 8.0467 0 0.0254
12:00 pm 12:00 Cloudy with Light Drizzle 48 9 45 7 87 87 Calm 30.12 1020 2.5 4.02335 0 0
12:13 pm 12:13 Cloudy with Light Drizzle 47 8.3 45 7.2 93 93 NE 3 6 30.12 1020 1.75 2.816345 0 0.0254
12:46 pm 12:46 Cloudy with Light Drizzle 46 8 45 7 93 93 Calm 30.12 1020 0.75 1.207005 0 0
12:52 pm 12:52 Cloudy with Light Drizzle 46 7.8 45 7.2 96 96 ENE 3 6 30.1 1019 0.75 1.207005 0 0.0254
1:12 pm 13:12 Cloudy with Light Drizzle 46 8 46 8 100 100 NNE 3 6 30.09 1019 1 1.60934 0 0
1:42 pm 13:42 Cloudy with Light Drizzle 48 9 46 8 94 94 NE 5 7 30.06 1018 2 3.21868 0 0
1:48 pm 13:48 Cloudy with Light Drizzle 48 9 46 8 94 94 NNE 6 9 30.06 1018 3 4.82802 0 0
1:52 pm 13:52 Mostly Cloudy with Light Drizzle 49 9.4 46 7.8 90 90 NNE 6 9 30.05 1018 3 4.82802 0 0.0254
2:38 pm 14:38 Cloudy with Light Drizzle 48 9 46 8 94 94 N 5 7 30.06 1018 6 9.65604 0 0
2:52 pm 14:52 Cloudy with Light Drizzle 50 10 46 7.8 86 86 NNE 5 7 30.06 1018 6 9.65604 0 0.0254
3:31 pm 15:31 Cloudy 50 10 46 7.8 86 86 N 5 7 30.06 1018 7 11.26538 0 0.0254
3:52 pm 15:52 Cloudy 50 10 46 7.8 86 86 N 6 9 30.06 1018 8 12.87472 0 0.0254
4:52 pm 16:52 Cloudy 50 10 46 7.8 86 86 Calm 30.06 1018 8 12.87472 0 0
5:29 pm 17:29 Cloudy 48 8.9 45 7.2 89 89 NNE 5 7 30.06 1018 7 11.26538 0 0
5:52 pm 17:52 Cloudy 47 8.3 45 7.2 93 93 NNE 7 11 30.04 1017 7 11.26538 0 0
6:11 pm 18:11 Cloudy 47 8.3 45 7.2 93 93 NNE 7 11 30.03 1017 7 11.26538 0 0
6:52 pm 18:52 Cloudy 48 8.9 45 7.2 89 89 NNE 7 11 30.04 1017 7 11.26538 0 0
7:52 pm 19:52 Cloudy with Mist and Fog 47 8.3 45 7.2 93 93 NNE 5 7 30.01 1016 5 8.0467 0 0
8:52 pm 20:52 Cloudy with Mist and Fog 48 8.9 45 7.2 89 89 NNE 7 11 29.98 1015 5 8.0467 0 0
9:12 pm 21:12 Cloudy with Mist and Fog 48 9 45 7 87 87 NE 9 15 29.94 1014 6 9.65604 0 0
9:34 pm 21:34 Cloudy with Mist and Fog 48 9 46 8 94 94 NE 8 13 29.94 1014 5 8.0467 0 0
9:39 pm 21:39 Cloudy with Light Rain 49 9.4 46 7.8 90 90 NE 6 9 29.94 1014 4 6.43736 0 0.0254
9:50 pm 21:50 Cloudy with Heavy Rain 48 9 46 8 94 94 NE 7 11 29.94 1014 2 3.21868 0 0
9:52 pm 21:52 Cloudy with Heavy Rain 48 8.9 47 8.3 96 96 NE 7 11 29.93 1013 2 3.21868 0.04 1.016
9:59 pm 21:59 Cloudy with Rain 49 9.4 47 8.3 93 93 N 6 9 29.94 1014 1.75 2.816345 0.04 1.016
10:04 pm 22:04 Cloudy with Rain 48 9 48 9 100 100 N 5 7 29.94 1014 3 4.82802 0 0
10:52 pm 22:52 Cloudy with Light Rain 49 9.4 48 8.9 97 97 NNE 5 7 29.9 1012 4 6.43736 0.12 3.048
11:25 pm 23:25 Cloudy with Light Rain 49 9.4 48 8.9 97 97 NE 9 15 29.85 1011 7 11.26538 0.05 1.27
11:52 pm 23:52 Cloudy 50 10 49 9.4 96 96 ENE 10 17 29.81 1010 7 11.26538 0.05 1.27

Powered by AerisWeather